Date String (YYYY-MM-DD hh:mm:ss) UTC,Instrument flags,Ambient pressure (hPa),Sample flow (lpm),Bypass flow (lpm),Sample temperature (°C),Ambient temperature (°C),ASC tube jacket temperature (°C),LED temperature (°C),Box temperature (°C),Sample RH (%),Span deviation,Mass concentration (μg/m³),Mass concentration (μg/m³),Mass concentration (μg/m³)
DateTimeUTC,F1_M11,P_M11,Q1_M11,Q2_M11,T1_M11,T2_M11,T3_M11,T4_M11,T5_M11,U1_M11,ZSPAN_M11,X0_M11,X2_M11,X1_M11
2021-08-31 17:00:00,,0824.2,5.00,0.00,29.1,26.1,00.0,38.3,30.6,18.5,0002.0,0036.01,0020.61,0018.82
2021-08-31 17:01:00,,0824.2,5.00,0.00,29.1,26.5,00.0,38.3,30.7,17.2,0002.0,0036.85,0020.48,0018.73
2021-08-31 17:02:00,,0824.2,4.99,0.00,29.1,27.0,00.0,38.2,30.8,18.1,0002.1,0036.60,0020.38,0018.67
2021-08-31 17:03:00,,0824.1,5.01,0.00,29.1,27.4,00.0,38.2,30.9,16.6,0002.1,0036.38,0020.22,0018.59
2021-08-31 17:04:00,,0824.2,5.01,0.00,29.2,27.7,00.0,38.2,31.0,16.6,0002.3,0036.27,0020.07,0018.50
2021-08-31 17:05:00,,0824.1,4.99,0.00,29.2,28.0,00.0,38.2,31.1,16.0,0002.5,0035.33,0019.90,0018.39
2021-08-31 17:06:00,,0824.2,5.01,0.00,29.3,28.3,00.0,38.3,31.2,15.5,0002.3,0034.17,0019.72,0018.27
2021-08-31 17:07:00,,0824.1,4.99,0.00,29.4,28.5,00.0,38.3,31.2,15.4,0002.4,0033.28,0019.42,0018.12
2021-08-31 17:08:00,,0824.1,5.00,0.00,29.4,27.7,00.0,38.3,31.1,16.0,0002.4,0031.93,0019.25,0018.00
2021-08-31 17:09:00,,0824.1,4.99,0.00,29.2,26.2,00.0,38.3,30.7,15.2,0002.3,0032.09,0019.13,0017.91
2021-08-31 17:10:00,,0824.1,4.99,0.00,29.2,26.2,00.0,38.3,30.7,14.0,0002.4,0031.53,0018.96,0017.80
2021-08-31 17:11:00,,0824.1,4.99,0.00,29.2,26.6,00.0,38.3,30.8,16.0,0002.4,0029.82,0018.78,0017.70
2021-08-31 17:12:00,,0824.1,5.01,0.00,29.2,27.1,00.0,38.2,30.9,18.5,0002.5,0028.80,0018.78,0017.69
2021-08-31 17:13:00,,0824.0,4.99,0.00,29.2,27.5,00.0,38.2,31.0,20.8,0002.4,0028.93,0018.90,0017.72
2021-08-31 17:14:00,,0824.1,4.99,0.00,29.2,27.8,00.0,38.2,31.1,19.3,0002.3,0029.78,0019.01,0017.78
2021-08-31 17:15:00,,0824.1,5.01,0.00,29.3,28.1,00.0,38.3,31.2,19.3,0002.4,0029.45,0019.08,0017.79
2021-08-31 17:16:00,,0824.1,4.99,0.00,29.3,28.1,00.0,38.3,31.1,18.3,0002.4,0029.19,0019.11,0017.80
2021-08-31 17:17:00,,0824.1,5.01,0.00,29.3,26.7,00.0,38.3,30.7,16.4,0002.6,0029.70,0019.10,0017.80
2021-08-31 17:18:00,,0824.1,4.99,0.00,29.1,25.9,00.0,38.3,30.5,16.4,0002.6,0029.12,0019.10,0017.83
2021-08-31 17:19:00,,0824.1,4.99,0.00,29.1,26.3,00.0,38.2,30.6,18.2,0002.7,0028.63,0019.13,0017.84
2021-08-31 17:20:00,,0824.1,5.02,0.00,29.1,26.7,00.0,38.2,30.7,19.0,0002.7,0028.13,0019.21,0017.85
2021-08-31 17:21:00,,0824.1,4.99,0.00,29.1,27.1,00.0,38.2,30.8,19.3,0002.8,0029.04,0019.41,0017.90
2021-08-31 17:22:00,,0824.1,4.99,0.00,29.1,27.5,00.0,38.2,30.9,20.2,0003.1,0030.83,0019.58,0017.98
2021-08-31 17:23:00,,0824.1,5.01,0.00,29.2,27.8,00.0,38.2,31.0,20.0,0003.0,0032.93,0019.66,0018.01
2021-08-31 17:24:00,,0824.1,4.98,0.00,29.2,27.2,00.0,38.2,30.8,19.4,0003.2,0034.38,0019.56,0017.94
2021-08-31 17:25:00,,0824.1,5.01,0.00,29.1,25.8,00.0,38.2,30.5,18.6,0003.2,0036.07,0019.49,0017.80
2021-08-31 17:26:00,,0824.0,4.99,0.00,29.0,25.9,00.0,38.2,30.4,18.7,0003.2,0038.17,0019.43,0017.74
2021-08-31 17:27:00,,0824.0,5.00,0.00,29.0,26.4,00.0,38.1,30.6,18.9,0003.3,0039.25,0019.42,0017.65
2021-08-31 17:28:00,,0824.0,5.01,0.00,29.0,26.8,00.0,38.1,30.7,18.6,0003.2,0040.14,0019.45,0017.61
2021-08-31 17:29:00,,0824.1,4.99,0.00,29.0,27.2,00.0,38.1,30.8,19.3,0003.0,0041.41,0019.47,0017.55
2021-08-31 17:30:00,,0824.0,5.01,0.00,29.0,27.6,00.0,38.1,30.9,19.5,0003.2,0042.75,0019.47,0017.51
2021-08-31 17:31:00,,0824.0,5.01,0.00,29.1,27.9,00.0,38.1,31.0,19.6,0003.2,0043.26,0019.42,0017.45
2021-08-31 17:32:00,,0824.0,5.00,0.00,29.2,28.2,00.0,38.1,31.1,20.0,0003.3,0043.25,0019.29,0017.39
2021-08-31 17:33:00,,0824.0,5.00,0.00,29.2,27.6,00.0,38.1,30.9,19.9,0003.0,0042.10,0019.15,0017.31
2021-08-31 17:34:00,,0824.0,5.00,0.00,29.1,26.1,00.0,38.1,30.5,20.2,0003.0,0040.44,0019.11,0017.23
2021-08-31 17:35:00,,0823.9,5.00,0.00,29.0,26.0,00.0,38.1,30.5,20.7,0002.8,0039.67,0019.07,0017.18
2021-08-31 17:36:00,,0824.0,5.01,0.00,29.0,26.5,00.0,38.1,30.6,20.7,0002.7,0037.72,0019.03,0017.17
2021-08-31 17:37:00,,0824.0,5.01,0.00,29.0,26.9,00.0,38.1,30.7,21.1,0002.6,0035.89,0019.05,0017.17
2021-08-31 17:38:00,,0824.0,4.99,0.00,29.0,27.3,00.0,38.1,30.8,20.9,0002.9,0035.66,0019.06,0017.21
2021-08-31 17:39:00,,0824.0,5.00,0.00,29.1,27.7,00.0,38.1,30.9,21.0,0003.1,0035.71,0019.07,0017.22
2021-08-31 17:40:00,,0823.9,5.01,0.00,29.1,28.0,00.0,38.1,31.0,20.6,0003.0,0035.92,0019.06,0017.20
2021-08-31 17:41:00,,0824.0,5.00,0.00,29.2,28.2,00.0,38.1,31.1,20.7,0002.8,0036.36,0019.01,0017.15
2021-08-31 17:42:00,,0823.9,4.99,0.00,29.2,27.7,00.0,38.1,31.0,20.6,0003.2,0037.19,0019.02,0017.14
2021-08-31 17:43:00,,0823.9,5.02,0.00,29.1,26.1,00.0,38.1,30.5,20.9,0003.1,0037.68,0019.07,0017.11
2021-08-31 17:44:00,,0823.8,4.99,0.00,29.0,26.0,00.0,38.1,30.4,21.0,0003.1,0038.83,0019.12,0017.08
2021-08-31 17:45:00,,0823.8,4.99,0.00,29.0,26.5,00.0,38.1,30.6,21.3,0003.1,0040.78,0019.14,0017.05
2021-08-31 17:46:00,,0823.8,4.99,0.00,29.0,26.9,00.0,38.1,30.7,21.4,0003.0,0041.55,0019.15,0017.03
2021-08-31 17:47:00,,0823.8,5.01,0.00,29.0,27.3,00.0,38.1,30.8,21.6,0003.0,0042.55,0019.13,0017.00
2021-08-31 17:48:00,,0823.8,4.99,0.00,29.1,27.6,00.0,38.1,30.9,21.3,0003.0,0042.97,0019.12,0016.97
2021-08-31 17:49:00,,0823.8,4.99,0.00,29.1,28.0,00.0,38.1,31.0,20.9,0002.7,0042.91,0019.11,0016.97
2021-08-31 17:50:00,,0823.8,5.01,0.00,29.2,27.5,00.0,38.1,30.9,19.4,0002.6,0041.78,0019.09,0016.98
2021-08-31 17:51:00,,0823.8,5.00,0.00,29.0,26.0,00.0,38.1,30.5,20.9,0002.9,0042.35,0019.18,0017.07
2021-08-31 17:52:00,,0823.7,5.00,0.00,29.0,26.0,00.0,38.1,30.4,21.9,0002.7,0043.42,0019.29,0017.15
2021-08-31 17:53:00,,0823.7,4.99,0.00,28.9,26.4,00.0,38.1,30.5,21.4,0002.1,0042.29,0019.33,0017.20
2021-08-31 17:54:00,,0823.7,5.00,0.00,28.9,26.8,00.0,38.0,30.6,21.7,0002.1,0042.90,0019.35,0017.26
2021-08-31 17:55:00,,0823.7,5.00,0.00,29.0,27.2,00.0,38.0,30.8,20.8,0002.3,0043.24,0019.44,0017.32
2021-08-31 17:56:00,,0823.8,5.01,0.00,29.0,27.6,00.0,38.0,30.9,19.7,0002.1,0041.44,0019.49,0017.40
2021-08-31 17:57:00,,0823.7,4.98,0.00,29.1,27.9,00.0,38.0,31.0,19.5,0002.1,0041.20,0019.62,0017.49
2021-08-31 17:58:00,,0823.7,5.02,0.00,29.1,28.0,00.0,38.1,31.0,18.9,0002.4,0042.42,0019.72,0017.56
2021-08-31 17:59:00,,0823.7,4.99,0.00,29.1,26.9,00.0,38.1,30.7,18.3,0002.3,0042.90,0019.83,0017.64
